| time (UTC) | temp F | wind direction | speed MPH | gust MPH | rain 1hr in | rain 24hr in | rain mn in | humidity % | barometer mb |
| 20260505163025 | 36 | 139 | 4.0 | 10.0 | 0.00 | 0.17 | 0.08 | 92 | 1007.1 |
| 20260505162524 | 36 | 137 | 0.0 | 6.0 | 0.00 | 0.17 | 0.08 | 92 | 1007.2 |
| 20260505162026 | 36 | 141 | 0.0 | 8.0 | 0.00 | 0.17 | 0.08 | 92 | 1007.1 |
| 20260505161524 | 36 | 137 | 4.0 | 8.0 | 0.00 | 0.17 | 0.08 | 91 | 1007.0 |
| 20260505161024 | 36 | 137 | 2.0 | 7.0 | 0.00 | 0.17 | 0.08 | 91 | 1007.0 |
| 20260505160522 | 36 | 135 | 3.0 | 9.0 | 0.00 | 0.17 | 0.08 | 91 | 1006.9 |
| 20260505153017 | 35 | 134 | 2.0 | 9.0 | 0.01 | 0.17 | 0.08 | 91 | 1006.8 |
| 20260505152515 | 35 | 56 | 2.0 | 7.0 | 0.01 | 0.17 | 0.08 | 92 | 1006.8 |
| 20260505152018 | 35 | 56 | 0.0 | 4.0 | 0.01 | 0.17 | 0.08 | 91 | 1006.9 |
| 20260505151517 | 35 | 56 | 0.0 | 4.0 | 0.01 | 0.17 | 0.08 | 91 | 1006.8 |
| 20260505151013 | 35 | 56 | 0.0 | 4.0 | 0.01 | 0.17 | 0.08 | 92 | 1006.7 |
| 20260505150514 | 35 | 56 | 0.0 | 8.0 | 0.02 | 0.17 | 0.08 | 91 | 1006.7 |
| 20260505140502 | 35 | 56 | 0.0 | 3.0 | 0.01 | 0.15 | 0.06 | 91 | 1006.5 |
| 20260505130108 | 36 | 14 | 0.0 | 3.0 | 0.03 | 0.14 | 0.05 | 89 | 1005.1 |
| 20260505124553 | 37 | 29 | 0.0 | 3.0 | 0.02 | 0.13 | 0.04 | 89 | 1004.5 |
| 20260505124044 | 38 | 346 | 0.0 | 4.0 | 0.03 | 0.13 | 0.04 | 89 | 1004.3 |
| 20260505123543 | 38 | 55 | 0.0 | 7.0 | 0.03 | 0.13 | 0.04 | 89 | 1004.0 |
| 20260505123045 | 38 | 56 | 0.0 | 7.0 | 0.02 | 0.12 | 0.03 | 89 | 1003.8 |
| 20260505122540 | 39 | 356 | 0.0 | 3.0 | 0.02 | 0.12 | 0.03 | 89 | 1003.8 |
| 20260505122039 | 40 | 54 | 0.0 | 3.0 | 0.02 | 0.12 | 0.03 | 89 | 1003.9 |
| 20260505121538 | 40 | 44 | 0.0 | 2.0 | 0.03 | 0.12 | 0.03 | 89 | 1003.9 |
| 20260505121036 | 41 | 56 | 0.0 | 3.0 | 0.03 | 0.12 | 0.03 | 89 | 1003.7 |
| 20260505120535 | 41 | 41 | 0.0 | 3.0 | 0.02 | 0.11 | 0.02 | 90 | 1003.7 |
| 20260505120033 | 41 | 171 | 0.0 | 0.0 | 0.02 | 0.11 | 0.02 | 90 | 1003.7 |
| 20260505115534 | 41 | 171 | 0.0 | 0.0 | 0.02 | 0.11 | 0.02 | 90 | 1003.7 |
| 20260505115036 | 41 | 170 | 0.0 | 0.0 | 0.02 | 0.11 | 0.02 | 90 | 1003.7 |
| 20260505114534 | 41 | 169 | 0.0 | 0.0 | 0.01 | 0.10 | 0.01 | 90 | 1003.6 |
| 20260505114034 | 41 | 168 | 0.0 | 0.0 | 0.01 | 0.10 | 0.01 | 90 | 1003.5 |
| 20260505113535 | 41 | 168 | 0.0 | 0.0 | 0.01 | 0.10 | 0.01 | 90 | 1003.5 |
| 20260505113033 | 41 | 168 | 0.0 | 0.0 | 0.01 | 0.10 | 0.01 | 90 | 1003.5 |
| 20260505112634 | 41 | 168 | 0.0 | 0.0 | 0.01 | 0.10 | 0.01 | 90 | 1003.4 |
| 20260505112033 | 41 | 168 | 0.0 | 0.0 | 0.01 | 0.10 | 0.01 | 90 | 1003.5 |
| 20260505111538 | 41 | 168 | 0.0 | 0.0 | 0.00 | 0.09 | 0.00 | 89 | 1003.4 |
| 20260505111033 | 41 | 168 | 0.0 | 0.0 | 0.00 | 0.09 | 0.00 | 89 | 1003.4 |
| 20260505110532 | 41 | 168 | 0.0 | 0.0 | 0.00 | 0.09 | 0.00 | 89 | 1003.4 |
| 20260505102031 | 42 | 179 | 0.0 | 5.0 | 0.00 | 0.09 | 0.00 | 88 | 1002.7 |
| 20260505101527 | 43 | 179 | 0.0 | 5.0 | 0.00 | 0.09 | 0.00 | 88 | 1002.6 |
| 20260505101025 | 43 | 193 | 0.0 | 4.0 | 0.00 | 0.09 | 0.00 | 88 | 1002.3 |
| 20260505100526 | 43 | 251 | 0.0 | 1.0 | 0.00 | 0.09 | 0.00 | 88 | 1002.5 |
| 20260505100028 | 43 | 259 | 0.0 | 1.0 | 0.00 | 0.09 | 0.00 | 88 | 1002.5 |
| 20260505095521 | 44 | 259 | 0.0 | 0.0 | 0.00 | 0.09 | 0.00 | 89 | 1002.5 |
| 20260505095021 | 44 | 259 | 0.0 | 0.0 | 0.00 | 0.09 | 0.00 | 89 | 1002.4 |
| 20260505094521 | 44 | 256 | 0.0 | 0.0 | 0.00 | 0.09 | 0.00 | 89 | 1002.5 |
| 20260505094021 | 44 | 256 | 0.0 | 0.0 | 0.00 | 0.09 | 0.00 | 89 | 1002.5 |
| 20260505093520 | 44 | 256 | 0.0 | 0.0 | 0.00 | 0.09 | 0.00 | 88 | 1002.5 |
| 20260505093020 | 44 | 256 | 0.0 | 0.0 | 0.00 | 0.09 | 0.00 | 88 | 1002.6 |
| 20260505092522 | 44 | 256 | 0.0 | 0.0 | 0.00 | 0.09 | 0.00 | 88 | 1002.8 |
| 20260505092019 | 44 | 256 | 0.0 | 0.0 | 0.00 | 0.09 | 0.00 | 88 | 1002.8 |
| 20260505091518 | 44 | 256 | 0.0 | 0.0 | 0.00 | 0.09 | 0.00 | 88 | 1002.7 |
| 20260505091021 | 44 | 256 | 0.0 | 0.0 | 0.00 | 0.09 | 0.00 | 88 | 1002.7 |
| 20260505090519 | 45 | 256 | 0.0 | 0.0 | 0.00 | 0.09 | 0.00 | 88 | 1002.7 |
| 20260505090017 | 45 | 256 | 0.0 | 0.0 | 0.00 | 0.09 | 0.00 | 88 | 1002.5 |
| 20260505085516 | 45 | 256 | 0.0 | 0.0 | 0.00 | 0.09 | 0.00 | 88 | 1002.5 |
| 20260505085017 | 45 | 256 | 0.0 | 0.0 | 0.00 | 0.09 | 0.00 | 88 | 1002.5 |
| 20260505084519 | 45 | 256 | 0.0 | 0.0 | 0.00 | 0.09 | 0.00 | 88 | 1002.7 |
| 20260505084016 | 45 | 256 | 0.0 | 0.0 | 0.00 | 0.09 | 0.00 | 88 | 1002.7 |
| 20260505083515 | 45 | 256 | 0.0 | 0.0 | 0.00 | 0.09 | 0.00 | 87 | 1002.6 |
| 20260505083016 | 45 | 256 | 0.0 | 0.0 | 0.00 | 0.09 | 0.00 | 87 | 1002.7 |
| 20260505082513 | 45 | 256 | 0.0 | 0.0 | 0.00 | 0.09 | 0.00 | 87 | 1002.8 |
| 20260505082015 | 45 | 256 | 0.0 | 0.0 | 0.00 | 0.09 | 0.00 | 87 | 1002.9 |
| 20260505081512 | 45 | 256 | 0.0 | 0.0 | 0.00 | 0.09 | 0.00 | 87 | 1002.9 |
| 20260505081012 | 45 | 256 | 0.0 | 1.0 | 0.00 | 0.09 | 0.00 | 87 | 1002.9 |
| 20260505080514 | 45 | 257 | 0.0 | 0.0 | 0.00 | 0.09 | 0.00 | 88 | 1003.1 |
| 20260505080012 | 45 | 258 | 0.0 | 0.0 | 0.00 | 0.09 | 0.00 | 88 | 1003.0 |
| 20260505075509 | 45 | 257 | 0.0 | 0.0 | 0.00 | 0.09 | 0.00 | 89 | 1003.2 |
| 20260505075012 | 45 | 258 | 0.0 | 0.0 | 0.00 | 0.09 | 0.00 | 89 | 1003.3 |
| 20260505074509 | 45 | 257 | 0.0 | 0.0 | 0.00 | 0.09 | 0.00 | 89 | 1003.3 |
| 20260505074008 | 45 | 258 | 0.0 | 0.0 | 0.00 | 0.09 | 0.00 | 88 | 1003.3 |
| 20260505073509 | 45 | 258 | 0.0 | 0.0 | 0.00 | 0.09 | 0.00 | 88 | 1003.5 |
| 20260505073010 | 46 | 257 | 0.0 | 0.0 | 0.00 | 0.09 | 0.00 | 88 | 1003.4 |
| 20260505072508 | 46 | 258 | 0.0 | 0.0 | 0.00 | 0.09 | 0.00 | 88 | 1003.4 |
| 20260505072006 | 46 | 258 | 0.0 | 0.0 | 0.00 | 0.09 | 0.00 | 88 | 1003.3 |
| 20260505071515 | 46 | 257 | 0.0 | 0.0 | 0.00 | 0.09 | 0.00 | 88 | 1003.3 |
| 20260505071006 | 46 | 258 | 0.0 | 0.0 | 0.00 | 0.09 | 0.00 | 88 | 1003.5 |
| 20260505070505 | 46 | 258 | 0.0 | 0.0 | 0.00 | 0.09 | 0.00 | 88 | 1003.7 |
| 20260505070004 | 46 | 258 | 0.0 | 0.0 | 0.00 | 0.09 | 0.00 | 88 | 1003.6 |
| 20260505065503 | 46 | 258 | 0.0 | 0.0 | 0.00 | 0.09 | 0.00 | 88 | 1003.6 |
| 20260505065003 | 46 | 257 | 0.0 | 0.0 | 0.00 | 0.09 | 0.00 | 88 | 1003.7 |
| 20260505064503 | 46 | 258 | 0.0 | 0.0 | 0.00 | 0.09 | 0.00 | 87 | 1003.7 |
| 20260505064002 | 46 | 257 | 0.0 | 0.0 | 0.00 | 0.09 | 0.00 | 87 | 1003.7 |
| 20260505063502 | 46 | 257 | 0.0 | 0.0 | 0.00 | 0.09 | 0.00 | 87 | 1003.7 |
| 20260505063004 | 46 | 258 | 0.0 | 0.0 | 0.01 | 0.09 | 0.00 | 87 | 1003.7 |
| 20260505062502 | 46 | 258 | 0.0 | 0.0 | 0.01 | 0.09 | 0.00 | 87 | 1003.6 |
| 20260505062001 | 46 | 258 | 0.0 | 0.0 | 0.01 | 0.09 | 0.00 | 87 | 1003.5 |
| 20260505061603 | 46 | 258 | 0.0 | 0.0 | 0.02 | 0.09 | 0.00 | 87 | 1003.6 |
| 20260505061059 | 46 | 257 | 0.0 | 0.0 | 0.02 | 0.09 | 0.00 | 87 | 1003.6 |
| 20260505060559 | 46 | 257 | 0.0 | 0.0 | 0.02 | 0.09 | 0.00 | 87 | 1003.6 |
| 20260505060058 | 46 | 257 | 0.0 | 0.0 | 0.02 | 0.09 | 0.00 | 87 | 1003.8 |
| 20260505055557 | 46 | 258 | 0.0 | 0.0 | 0.03 | 0.09 | 0.09 | 87 | 1003.7 |
| 20260505055059 | 46 | 258 | 0.0 | 0.0 | 0.03 | 0.09 | 0.09 | 86 | 1003.6 |
| 20260505054559 | 46 | 258 | 0.0 | 0.0 | 0.03 | 0.09 | 0.09 | 86 | 1003.6 |
| 20260505054059 | 46 | 257 | 0.0 | 0.0 | 0.03 | 0.09 | 0.09 | 86 | 1003.5 |
| 20260505053556 | 46 | 258 | 0.0 | 0.0 | 0.04 | 0.09 | 0.09 | 85 | 1003.6 |
| 20260505053104 | 47 | 257 | 0.0 | 0.0 | 0.04 | 0.08 | 0.08 | 85 | 1003.7 |
| 20260505052556 | 47 | 257 | 0.0 | 0.0 | 0.05 | 0.08 | 0.08 | 84 | 1003.7 |
| 20260505052058 | 47 | 258 | 0.0 | 0.0 | 0.05 | 0.08 | 0.08 | 84 | 1003.8 |
| 20260505051555 | 47 | 257 | 0.0 | 0.0 | 0.05 | 0.07 | 0.07 | 84 | 1003.9 |
| 20260505051055 | 47 | 257 | 0.0 | 0.0 | 0.05 | 0.07 | 0.07 | 83 | 1004.0 |
| 20260505050555 | 47 | 257 | 0.0 | 0.0 | 0.06 | 0.07 | 0.07 | 84 | 1003.9 |
| 20260505041553 | 51 | 247 | 0.0 | 0.0 | 0.02 | 0.02 | 0.02 | 76 | 1003.7 |
| 20260505041048 | 51 | 246 | 0.0 | 0.0 | 0.02 | 0.02 | 0.02 | 74 | 1003.8 |
| 20260505040547 | 51 | 246 | 0.0 | 0.0 | 0.01 | 0.01 | 0.01 | 73 | 1003.6 |
| 20260505040050 | 51 | 246 | 0.0 | 0.0 | 0.01 | 0.01 | 0.01 | 72 | 1003.5 |
| 20260505035546 | 51 | 246 | 0.0 | 2.0 | 0.01 | 0.01 | 0.01 | 70 | 1003.5 |
| 20260505035045 | 52 | 246 | 0.0 | 2.0 | 0.00 | 0.00 | 0.00 | 67 | 1003.6 |
| 20260505034543 | 52 | 129 | 0.0 | 0.0 | 0.00 | 0.00 | 0.00 | 63 | 1003.4 |
| 20260505034044 | 52 | 129 | 0.0 | 0.0 | 0.00 | 0.00 | 0.00 | 61 | 1003.2 |
| 20260505033543 | 52 | 129 | 0.0 | 0.0 | 0.00 | 0.00 | 0.00 | 60 | 1003.2 |
| 20260505033047 | 52 | 129 | 0.0 | 0.0 | 0.00 | 0.00 | 0.00 | 58 | 1003.0 |
| 20260505032542 | 52 | 129 | 0.0 | 0.0 | 0.00 | 0.00 | 0.00 | 58 | 1002.8 |
| 20260505032044 | 51 | 129 | 0.0 | 0.0 | 0.00 | 0.00 | 0.00 | 58 | 1002.7 |
| 20260505031543 | 52 | 129 | 0.0 | 0.0 | 0.00 | 0.00 | 0.00 | 58 | 1002.6 |
| 20260505031042 | 51 | 129 | 0.0 | 0.0 | 0.00 | 0.00 | 0.00 | 58 | 1002.7 |
| 20260505030542 | 52 | 129 | 0.0 | 0.0 | 0.00 | 0.00 | 0.00 | 58 | 1002.4 |
| 20260505030042 | 52 | 129 | 0.0 | 0.0 | 0.00 | 0.00 | 0.00 | 58 | 1002.3 |
| 20260505025544 | 52 | 129 | 0.0 | 0.0 | 0.00 | 0.00 | 0.00 | 58 | 1002.3 |
| 20260505025041 | 52 | 129 | 0.0 | 0.0 | 0.00 | 0.00 | 0.00 | 57 | 1002.3 |
| 20260505024544 | 52 | 129 | 0.0 | 0.0 | 0.00 | 0.00 | 0.00 | 58 | 1002.2 |
| 20260505024041 | 52 | 129 | 0.0 | 0.0 | 0.00 | 0.00 | 0.00 | 57 | 1002.3 |
| 20260505023541 | 52 | 129 | 0.0 | 0.0 | 0.00 | 0.00 | 0.00 | 57 | 1002.1 |
| 20260505023042 | 52 | 129 | 0.0 | 0.0 | 0.00 | 0.00 | 0.00 | 57 | 1002.0 |
| 20260505022541 | 52 | 129 | 0.0 | 0.0 | 0.00 | 0.00 | 0.00 | 57 | 1002.0 |
| 20260505022043 | 52 | 129 | 0.0 | 0.0 | 0.00 | 0.00 | 0.00 | 56 | 1002.2 |
| 20260505021542 | 53 | 129 | 0.0 | 0.0 | 0.00 | 0.00 | 0.00 | 56 | 1002.0 |
| 20260505021040 | 53 | 129 | 0.0 | 1.0 | 0.00 | 0.00 | 0.00 | 55 | 1002.0 |
| 20260505020542 | 53 | 129 | 0.0 | 2.0 | 0.00 | 0.00 | 0.00 | 54 | 1002.2 |
| 20260505020040 | 54 | 129 | 0.0 | 2.0 | 0.00 | 0.00 | 0.00 | 53 | 1002.2 |
| 20260505015540 | 55 | 347 | 0.0 | 2.0 | 0.00 | 0.00 | 0.00 | 51 | 1002.0 |
| 20260505015040 | 55 | 342 | 0.0 | 2.0 | 0.00 | 0.00 | 0.00 | 49 | 1001.9 |
| 20260505014540 | 56 | 279 | 0.0 | 3.0 | 0.00 | 0.00 | 0.00 | 48 | 1001.5 |
| 20260505014041 | 56 | 279 | 0.0 | 6.0 | 0.00 | 0.00 | 0.00 | 47 | 1001.3 |
| 20260505013539 | 56 | 271 | 0.0 | 8.0 | 0.00 | 0.00 | 0.00 | 46 | 1001.4 |
| 20260505013039 | 57 | 272 | 1.0 | 8.0 | 0.00 | 0.00 | 0.00 | 45 | 1001.6 |
| 20260505012538 | 57 | 270 | 0.0 | 4.0 | 0.00 | 0.00 | 0.00 | 44 | 1001.5 |
| 20260505012041 | 57 | 277 | 0.0 | 15.0 | 0.00 | 0.00 | 0.00 | 44 | 1001.5 |
| 20260505011548 | 58 | 266 | 1.0 | 15.0 | 0.00 | 0.00 | 0.00 | 43 | 1001.6 |
| 20260505011041 | 58 | 272 | 2.0 | 10.0 | 0.00 | 0.00 | 0.00 | 43 | 1001.4 |
| 20260505010538 | 58 | 270 | 0.0 | 5.0 | 0.00 | 0.00 | 0.00 | 41 | 1001.2 |
| 20260505010039 | 59 | 269 | 0.0 | 4.0 | 0.00 | 0.00 | 0.00 | 41 | 1001.2 |
| 20260505005537 | 59 | 270 | 0.0 | 9.0 | 0.00 | 0.00 | 0.00 | 40 | 1001.1 |
| 20260505005037 | 59 | 269 | 0.0 | 9.0 | 0.00 | 0.00 | 0.00 | 39 | 1001.1 |
| 20260505004537 | 60 | 285 | 0.0 | 8.0 | 0.00 | 0.00 | 0.00 | 38 | 1001.0 |
| 20260505004036 | 60 | 272 | 0.0 | 7.0 | 0.00 | 0.00 | 0.00 | 38 | 1000.9 |
| 20260505003540 | 60 | 271 | 0.0 | 5.0 | 0.00 | 0.00 | 0.00 | 37 | 1000.8 |
| 20260505003036 | 60 | 271 | 0.0 | 5.0 | 0.00 | 0.00 | 0.00 | 37 | 1000.8 |
| 20260505002536 | 60 | 270 | 0.0 | 9.0 | 0.00 | 0.00 | 0.00 | 36 | 1000.7 |
| 20260505002036 | 61 | 263 | 0.0 | 14.0 | 0.00 | 0.00 | 0.00 | 36 | 1000.6 |
| 20260505001536 | 61 | 283 | 0.0 | 7.0 | 0.00 | 0.00 | 0.00 | 33 | 1000.5 |
| 20260505001035 | 61 | 287 | 0.0 | 5.0 | 0.00 | 0.00 | 0.00 | 33 | 1000.4 |
| 20260505000538 | 61 | 295 | 0.0 | 1.0 | 0.00 | 0.00 | 0.00 | 33 | 1000.3 |
| 20260505000035 | 62 | 195 | 0.0 | 1.0 | 0.00 | 0.00 | 0.00 | 32 | 1000.4 |
| 20260504235534 | 62 | 153 | 0.0 | 1.0 | 0.00 | 0.00 | 0.00 | 32 | 1000.3 |
| 20260504235036 | 62 | 251 | 0.0 | 2.0 | 0.00 | 0.00 | 0.00 | 32 | 1000.3 |
| 20260504234534 | 62 | 266 | 0.0 | 2.0 | 0.00 | 0.00 | 0.00 | 32 | 1000.2 |
| 20260504234033 | 62 | 280 | 0.0 | 3.0 | 0.00 | 0.00 | 0.00 | 32 | 1000.2 |
| 20260504233537 | 62 | 279 | 0.0 | 3.0 | 0.00 | 0.00 | 0.00 | 32 | 1000.1 |
| 20260504233036 | 62 | 355 | 0.0 | 3.0 | 0.00 | 0.00 | 0.00 | 32 | 1000.0 |
| 20260504232533 | 62 | 264 | 0.0 | 3.0 | 0.00 | 0.00 | 0.00 | 32 | 999.9 |
| 20260504232034 | 62 | 270 | 0.0 | 5.0 | 0.00 | 0.00 | 0.00 | 32 | 1000.0 |
| 20260504231533 | 62 | 281 | 0.0 | 5.0 | 0.00 | 0.00 | 0.00 | 32 | 999.7 |
| 20260504231033 | 62 | 52 | 0.0 | 4.0 | 0.00 | 0.00 | 0.00 | 32 | 999.6 |
| 20260504230534 | 63 | 31 | 1.0 | 4.0 | 0.00 | 0.00 | 0.00 | 32 | 999.4 |
| 20260504230032 | 63 | 129 | 0.0 | 4.0 | 0.00 | 0.00 | 0.00 | 31 | 999.3 |
| 20260504225531 | 64 | 277 | 0.0 | 13.0 | 0.00 | 0.00 | 0.00 | 31 | 999.1 |
| 20260504225034 | 64 | 129 | 0.0 | 13.0 | 0.00 | 0.00 | 0.00 | 30 | 999.1 |
| 20260504224532 | 65 | 280 | 1.0 | 15.0 | 0.00 | 0.00 | 0.00 | 28 | 999.1 |
| 20260504224036 | 66 | 272 | 2.0 | 14.0 | 0.00 | 0.00 | 0.00 | 27 | 999.0 |
| 20260504223531 | 66 | 287 | 1.0 | 13.0 | 0.00 | 0.00 | 0.00 | 27 | 998.9 |
| 20260504223032 | 67 | 268 | 2.0 | 13.0 | 0.00 | 0.00 | 0.00 | 26 | 998.8 |
| 20260504222532 | 68 | 277 | 0.0 | 8.0 | 0.00 | 0.00 | 0.00 | 24 | 999.0 |
| 20260504222031 | 69 | 291 | 1.0 | 8.0 | 0.00 | 0.00 | 0.00 | 22 | 998.9 |
| 20260504221531 | 69 | 229 | 0.0 | 4.0 | 0.00 | 0.00 | 0.00 | 22 | 998.7 |
| 20260504221031 | 70 | 250 | 0.0 | 4.0 | 0.00 | 0.00 | 0.00 | 21 | 998.7 |
| 20260504220531 | 70 | 148 | 0.0 | 11.0 | 0.00 | 0.00 | 0.00 | 22 | 998.6 |
| 20260504220030 | 70 | 277 | 0.0 | 11.0 | 0.00 | 0.00 | 0.00 | 21 | 998.5 |
| 20260504215531 | 71 | 267 | 0.0 | 7.0 | 0.00 | 0.00 | 0.00 | 20 | 998.4 |
| 20260504215032 | 71 | 266 | 1.0 | 7.0 | 0.00 | 0.00 | 0.00 | 20 | 998.5 |
| 20260504214530 | 72 | 261 | 1.0 | 10.0 | 0.00 | 0.00 | 0.00 | 20 | 998.5 |
| 20260504214029 | 72 | 258 | 2.0 | 15.0 | 0.00 | 0.00 | 0.00 | 20 | 998.5 |
| 20260504213528 | 73 | 272 | 2.0 | 15.0 | 0.00 | 0.00 | 0.00 | 20 | 998.6 |
| 20260504213027 | 74 | 260 | 4.0 | 13.0 | 0.00 | 0.00 | 0.00 | 21 | 998.7 |
| 20260504212528 | 74 | 268 | 2.0 | 9.0 | 0.00 | 0.00 | 0.00 | 19 | 998.7 |
| 20260504212027 | 74 | 279 | 1.0 | 11.0 | 0.00 | 0.00 | 0.00 | 19 | 998.7 |
| 20260504211527 | 75 | 277 | 1.0 | 11.0 | 0.00 | 0.00 | 0.00 | 20 | 998.8 |
| 20260504211026 | 75 | 262 | 0.0 | 17.0 | 0.00 | 0.00 | 0.00 | 20 | 998.9 |
| 20260504210525 | 75 | 274 | 2.0 | 16.0 | 0.00 | 0.00 | 0.00 | 19 | 999.0 |
| 20260504210025 | 75 | 270 | 2.0 | 12.0 | 0.00 | 0.00 | 0.00 | 20 | 998.8 |
| 20260504205524 | 75 | 266 | 1.0 | 10.0 | 0.00 | 0.00 | 0.00 | 20 | 999.0 |
| 20260504205022 | 75 | 272 | 0.0 | 15.0 | 0.00 | 0.00 | 0.00 | 20 | 999.1 |
| 20260504204523 | 74 | 270 | 0.0 | 21.0 | 0.00 | 0.00 | 0.00 | 20 | 999.0 |
| 20260504204022 | 74 | 256 | 1.0 | 21.0 | 0.00 | 0.00 | 0.00 | 21 | 998.9 |
| 20260504203521 | 73 | 271 | 1.0 | 14.0 | 0.00 | 0.00 | 0.00 | 21 | 999.1 |
| 20260504203021 | 72 | 268 | 0.0 | 9.0 | 0.00 | 0.00 | 0.00 | 23 | 999.3 |
| 20260504202521 | 71 | 266 | 1.0 | 9.0 | 0.00 | 0.00 | 0.00 | 21 | 999.3 |
| 20260504202021 | 70 | 223 | 0.0 | 3.0 | 0.00 | 0.00 | 0.00 | 23 | 999.3 |
| 20260504201522 | 69 | 150 | 0.0 | 5.0 | 0.00 | 0.00 | 0.00 | 23 | 999.3 |
| 20260504201019 | 69 | 148 | 1.0 | 5.0 | 0.00 | 0.00 | 0.00 | 23 | 999.4 |
| 20260504200519 | 69 | 148 | 0.0 | 8.0 | 0.00 | 0.00 | 0.00 | 21 | 999.4 |
| 20260504200033 | 69 | 148 | 2.0 | 14.0 | 0.00 | 0.00 | 0.00 | 22 | 999.5 |
| 20260504195518 | 69 | 147 | 4.0 | 13.0 | 0.00 | 0.00 | 0.00 | 23 | 999.6 |
| 20260504195018 | 70 | 129 | 4.0 | 13.0 | 0.00 | 0.00 | 0.00 | 22 | 999.7 |
| 20260504194520 | 70 | 280 | 0.0 | 10.0 | 0.00 | 0.00 | 0.00 | 22 | 999.5 |
| 20260504194018 | 70 | 148 | 3.0 | 10.0 | 0.00 | 0.00 | 0.00 | 21 | 999.5 |
| 20260504193519 | 70 | 269 | 0.0 | 4.0 | 0.00 | 0.00 | 0.00 | 21 | 999.4 |
| 20260504193018 | 70 | 272 | 0.0 | 9.0 | 0.00 | 0.00 | 0.00 | 23 | 999.5 |
| 20260504192517 | 69 | 290 | 0.0 | 9.0 | 0.00 | 0.00 | 0.00 | 24 | 999.5 |
| 20260504192017 | 69 | 279 | 0.0 | 16.0 | 0.00 | 0.00 | 0.00 | 21 | 999.5 |
| 20260504191528 | 69 | 269 | 0.0 | 8.0 | 0.00 | 0.00 | 0.00 | 22 | 999.4 |
| 20260504191017 | 69 | 268 | 0.0 | 9.0 | 0.00 | 0.00 | 0.00 | 22 | 999.5 |
| 20260504190517 | 69 | 277 | 1.0 | 9.0 | 0.00 | 0.00 | 0.00 | 20 | 999.6 |
| 20260504190016 | 70 | 271 | 0.0 | 11.0 | 0.00 | 0.00 | 0.00 | 21 | 999.5 |
| 20260504185515 | 70 | 269 | 1.0 | 16.0 | 0.00 | 0.00 | 0.00 | 20 | 999.5 |
| 20260504185015 | 71 | 253 | 4.0 | 16.0 | 0.00 | 0.00 | 0.00 | 19 | 999.4 |
| 20260504184515 | 71 | 264 | 0.0 | 16.0 | 0.00 | 0.00 | 0.00 | 19 | 999.4 |
| 20260504184015 | 72 | 268 | 0.0 | 10.0 | 0.00 | 0.00 | 0.00 | 20 | 999.4 |
| 20260504183514 | 72 | 274 | 1.0 | 10.0 | 0.00 | 0.00 | 0.00 | 20 | 999.5 |
| 20260504183032 | 73 | 274 | 0.0 | 8.0 | 0.00 | 0.00 | 0.00 | 18 | 999.5 |
| 20260504182514 | 73 | 274 | 0.0 | 8.0 | 0.00 | 0.00 | 0.00 | 18 | 999.6 |
| 20260504182013 | 74 | 273 | 0.0 | 5.0 | 0.00 | 0.00 | 0.00 | 18 | 999.5 |
| 20260504181522 | 75 | 269 | 0.0 | 7.0 | 0.00 | 0.00 | 0.00 | 17 | 999.6 |
| 20260504181012 | 75 | 269 | 0.0 | 10.0 | 0.00 | 0.00 | 0.00 | 18 | 999.7 |
| 20260504180516 | 75 | 266 | 1.0 | 10.0 | 0.00 | 0.00 | 0.00 | 18 | 999.6 |
| 20260504180010 | 75 | 244 | 0.0 | 3.0 | 0.00 | 0.00 | 0.00 | 17 | 999.7 |
| 20260504175510 | 76 | 244 | 0.0 | 15.0 | 0.00 | 0.00 | 0.00 | 17 | 999.8 |
| 20260504175009 | 76 | 252 | 3.0 | 15.0 | 0.00 | 0.00 | 0.00 | 18 | 999.9 |
| 20260504174512 | 76 | 258 | 1.0 | 10.0 | 0.00 | 0.00 | 0.00 | 18 | 1000.0 |
| 20260504174007 | 76 | 266 | 0.0 | 5.0 | 0.00 | 0.00 | 0.00 | 16 | 1000.1 |
| 20260504173508 | 75 | 266 | 0.0 | 5.0 | 0.00 | 0.00 | 0.00 | 17 | 1000.3 |
| 20260504173005 | 75 | 264 | 1.0 | 14.0 | 0.00 | 0.00 | 0.00 | 19 | 1000.4 |
| 20260504172605 | 74 | 272 | 1.0 | 15.0 | 0.00 | 0.00 | 0.00 | 18 | 1000.3 |
| 20260504172004 | 74 | 272 | 4.0 | 15.0 | 0.00 | 0.00 | 0.00 | 20 | 1000.4 |
| 20260504171502 | 74 | 259 | 0.0 | 10.0 | 0.00 | 0.00 | 0.00 | 19 | 1000.4 |
| 20260504171005 | 74 | 252 | 0.0 | 14.0 | 0.00 | 0.00 | 0.00 | 18 | 1000.6 |
| 20260504170501 | 74 | 254 | 3.0 | 14.0 | 0.00 | 0.00 | 0.00 | 20 | 1000.7 |
| 20260504170110 | 74 | 259 | 1.0 | 10.0 | 0.00 | 0.00 | 0.00 | 21 | 1000.7 |